Regional Weather Roundup
Issued by NWS

Home | Current Version | Previous Version | Graphics & Text | Print | Product List | Glossary On
Versions: 1 2 3 4 5 6 7 8 9 10 11 12 13 14 15 16 17 18 19 20 21 22 23 24 25 26 27 28 29 30 31 32 33 34 35 36 37 38 39 40 41 42 43 44 45 46 47 48 49 50
994
ASUS43 KLMK 181710
RWRKY
KENTUCKY REGIONAL WEATHER ROUNDUP
NATIONAL WEATHER SERVICE LOUISVILLE KY
100 PM EDT FRI AUG 18 2017

NOTE "FAIR" INDICATES FEW OR NO CLOUDS BELOW 12,000 FEET
WITH NO SIGNIFICANT WEATHER AND/OR OBSTRUCTIONS TO VISIBILITY.

KYZ001>023-026-027-061>063-070>075-181800-
WESTERN AND SOUTH CENTRAL KENTUCKY

CITY           SKY/WX    TMP DP  RH WIND       PRES   REMARKS
PADUCAH        SUNNY     86  61  42 W10G18    30.00S
HENDERSON      SUNNY     82  67  60 W8        29.99R
OWENSBORO      MOSUNNY   84  67  56 W13       29.98S
HOPKINSVILLE   SUNNY     82  64  53 W13       30.00S
BOWLING GREEN  MOSUNNY   82  65  56 W12       29.99S
GLASGOW        PTSUNNY   82  64  54 W12       29.99S
$$

KYZ024-025-028>034-038-045-046-053-181800-
NORTH CENTRAL KENTUCKY

CITY           SKY/WX    TMP DP  RH WIND       PRES   REMARKS
LOUISVILLE/SDF PTSUNNY   85  65  51 W15       29.94S
LOUISVILLE/LOU PTSUNNY   84  67  56 W9        29.95R
FORT KNOX      MOSUNNY   82  64  53 W8        29.96R
$$

KYZ035>037-039>044-047>052-055>060-089>105-181800-
NORTHEAST KENTUCKY

CITY           SKY/WX    TMP DP  RH WIND       PRES   REMARKS
LEXINGTON      MOSUNNY   81  64  56 W14       29.96S
COVINGTON      PTSUNNY   82  66  58 W12G20    29.93S
FRANKFORT      PTSUNNY   83  63  50 W10G17    29.94S
$$

KYZ054-064>069-076>088-106>120-181800-
SOUTHEAST KENTUCKY

CITY           SKY/WX    TMP DP  RH WIND       PRES   REMARKS
JACKSON        MOSUNNY   79  73  82 CALM      29.97S
LONDON         MOSUNNY   81  70  69 W14       29.98F
SOMERSET       PTSUNNY   79  68  69 W7        29.99S
MIDDLESBORO    PTSUNNY   81  70  68 NW8       29.98F
MONTICELLO     PTSUNNY   83  71  67 W14G23    30.01S
$$





USA.gov is the U.S. government's official web portal to all federal, state and local government web resources and services.